Temp
66 66 65 65 64 64 63 63 63 62 62 62 61 60 61 62 64 64 64 63 63 62 63 62 63 62 63 63 63 63 63 61 61 61 61 62 61 61 61 60 60 60
65 65 65 65 64 63 63 63 62 62 61 61 61 62 63 63 63 63 63 63 63 62 63 62 62 63 62 62 62 61 61 61 60 63 61 61 60 60 60 60 60 60
63 63 63 63 62 62 62 62 62 61 61 61 62 62 63 64 63 63 63 62 62 62 62 62 62 62 62 62 62 61 60 60 59 61 61 60 60 60 59 59 59 59
62 62 63 63 63 62 62 62 62 62 62 62 62 63 64 63 63 62 62 63 62 62 61 61 61 61 62 61 61 60 60 60 60 60 60 60 60 60 59 59 59 59
62 62 63 63 63 63 62 62 61 61 62 62 63 63 63 62 62 62 62 62 61 61 61 61 61 60 61 60 60 59 59 59 60 60 59 58 59 59 60 59 59 58
63 64 64 63 63 62 62 62 63 63 63 62 61 63 62 63 63 62 62 61 62 61 61 61 60 60 60 60 59 59 59 58 59 60 59 58 59 60 60 59 58 58
62 62 62 63 63 63 63 63 63 63 62 62 63 62 62 62 62 62 62 61 61 61 61 60 59 58 59 59 58 59 59 59 59 60 59 58 59 58 59 59 58 58
62 63 63 63 63 63 62 62 62 62 62 62 61 62 62 62 63 62 62 61 60 60 59 59 59 59 58 58 58 58 58 59 58 58 58 58 57 57 57 58 57 57
62 62 62 62 62 61 61 62 62 62 63 61 61 61 62 62 61 61 61 61 60 59 58 58 57 57 56 57 57 57 58 58 58 57 57 57 57 57 57 57 56 55
61 61 61 61 60 61 60 61 61 61 62 62 62 61 61 61 62 62 61 60 59 58 57 56 55 55 55 56 57 57 58 58 58 57 58 57 57 57 56 56 55 54
61 61 60 60 60 60 60 61 61 61 61 62 61 61 62 61 61 61 60 59 57 57 56 55 54 53 52 53 55 56 57 58 58 58 57 57 57 56 58 56 55 54
60 60 60 60 60 60 60 61 61 61 61 61 62 61 60 60 60 60 60 58 57 56 55 54 53 51 50 51 52 54 54 57 57 57 57 57 57 57 57 56 55 55
60 60 60 59 59 60 60 61 61 61 61 61 62 61 60 60 60 59 58 58 57 55 54 52 51 49 48 48 50 52 52 54 57 56 57 56 56 57 57 56 56 55
60 60 60 60 60 60 60 60 60 60 60 60 61 60 60 60 60 59 58 58 56 55 53 52 50 48 46 46 48 49 51 52 56 56 56 56 55 56 56 56 55 55
59 60 60 60 60 60 59 59 60 59 60 60 59 59 60 61 60 59 58 57 56 55 53 51 49 46 45 43 44 46 48 51 52 55 55 55 55 55 55 55 55 54
61 60 60 60 60 59 59 59 59 59 59 58 58 59 59 59 59 58 57 56 54 54 52 50 47 46 44 42 43 43 46 49 50 54 55 54 54 53 54 54 54 53
61 60 60 59 59 59 58 58 58 57 57 57 57 57 57 58 58 58 56 55 54 52 51 49 47 45 42 40 41 41 44 47 49 54 55 54 54 53 52 53 52 53
61 61 60 59 59 58 58 57 57 56 56 56 56 56 56 57 56 57 56 55 53 52 50 49 47 43 41 41 41 41 42 44 49 54 55 54 54 53 53 52 51 52
60 59 58 57 57 56 56 57 57 56 56 55 55 56 56 55 56 56 56 55 53 51 49 48 47 43 41 41 42 41 41 43 51 55 54 54 54 54 53 52 51 51
59 58 57 56 57 57 57 57 57 56 56 56 56 56 54 54 55 55 55 55 53 51 49 48 47 43 41 42 42 41 41 42 52 55 54 55 54 54 53 52 51 51
59 58 58 58 58 58 58 57 57 56 57 56 56 56 55 54 54 53 54 55 53 51 49 48 47 42 42 41 42 41 42 45 55 56 55 54 54 54 53 52 52 51
60 59 58 58 58 58 57 57 56 56 56 56 56 55 55 55 54 54 53 54 54 51 49 48 47 41 42 42 42 41 43 52 54 54 54 54 53 54 54 52 52 50
60 59 58 58 58 57 57 56 56 56 56 57 55 55 54 54 53 53 53 53 53 52 49 48 47 43 41 42 42 41 44 51 53 53 53 53 53 54 53 52 51 51
60 60 59 58 58 57 56 56 56 56 56 57 55 55 54 54 54 53 53 52 52 51 52 50 47 44 42 42 42 41 44 49 52 51 51 51 51 53 53 49 50 53
60 60 59 58 57 57 57 56 56 56 56 57 56 56 55 56 56 54 53 53 52 52 54 52 49 47 42 41 41 41 44 48 51 49 48 48 49 51 53 53 52 51
60 59 58 58 57 57 57 57 57 57 57 57 57 58 57 56 56 55 54 53 53 53 53 52 51 48 47 42 41 42 42 46 50 48 46 47 48 50 51 52 51 52
MSLP
1019.77 1019.89 1020.09 1020.29 1020.57 1020.65 1020.69 1020.77 1020.73 1020.69 1020.81 1020.85 1021.09 1021.25 1021.13 1020.89 1020.61 1020.53 1020.45 1020.57 1020.65 1020.65 1020.57 1020.53 1020.49 1020.45 1020.37 1020.25 1020.17 1020.21 1020.25 1020.41 1020.41 1020.37 1020.25 1020.17 1020.21 1020.25 1020.37 1020.41 1020.37 1020.37
1020.21 1020.33 1020.49 1020.65 1020.81 1020.89 1021.05 1021.01 1021.01 1021.05 1021.17 1021.17 1021.17 1021.13 1020.89 1020.73 1020.73 1020.65 1020.69 1020.77 1020.77 1020.81 1020.77 1020.77 1020.73 1020.61 1020.57 1020.49 1020.45 1020.49 1020.45 1020.53 1020.65 1020.45 1020.41 1020.45 1020.49 1020.45 1020.57 1020.57 1020.57 1020.53
1020.73 1020.85 1020.93 1021.05 1021.13 1021.21 1021.33 1021.33 1021.29 1021.25 1021.33 1021.29 1021.21 1021.05 1020.85 1020.73 1020.85 1020.89 1020.85 1020.85 1020.93 1020.93 1020.97 1020.97 1020.97 1020.85 1020.77 1020.73 1020.69 1020.73 1020.69 1020.77 1020.85 1020.65 1020.57 1020.69 1020.69 1020.65 1020.73 1020.73 1020.69 1020.57
1021.25 1021.25 1021.21 1021.17 1021.21 1021.29 1021.37 1021.41 1021.37 1021.33 1021.21 1021.17 1021.13 1020.93 1020.85 1020.97 1020.97 1021.01 1021.01 1021.01 1021.05 1021.13 1021.13 1021.17 1021.17 1021.09 1021.01 1021.01 1021.01 1021.01 1021.01 1021.05 1021.01 1020.93 1020.85 1020.93 1020.89 1020.89 1020.89 1020.85 1020.81 1020.65
1021.33 1021.25 1021.21 1021.25 1021.29 1021.33 1021.33 1021.37 1021.49 1021.41 1021.25 1021.13 1021.09 1021.09 1021.13 1021.13 1021.13 1021.17 1021.21 1021.25 1021.25 1021.33 1021.33 1021.37 1021.41 1021.37 1021.29 1021.33 1021.33 1021.33 1021.37 1021.37 1021.25 1021.17 1021.13 1021.17 1021.05 1020.97 1021.01 1021.01 1021.01 1020.89
1021.05 1021.05 1021.13 1021.13 1021.09 1021.17 1021.33 1021.33 1021.21 1021.21 1021.29 1021.37 1021.41 1021.29 1021.25 1021.25 1021.33 1021.37 1021.41 1021.49 1021.53 1021.53 1021.57 1021.61 1021.69 1021.69 1021.61 1021.65 1021.61 1021.61 1021.65 1021.61 1021.53 1021.41 1021.37 1021.37 1021.29 1021.25 1021.29 1021.29 1021.29 1021.13
1021.05 1021.01 1021.09 1021.09 1021.13 1021.13 1021.17 1021.21 1021.29 1021.33 1021.45 1021.45 1021.41 1021.45 1021.45 1021.53 1021.57 1021.61 1021.73 1021.77 1021.81 1021.89 1021.93 1022.01 1022.05 1022.09 1022.05 1022.01 1021.97 1021.89 1021.85 1021.85 1021.81 1021.69 1021.61 1021.61 1021.57 1021.57 1021.53 1021.53 1021.53 1021.37
1020.85 1020.85 1020.89 1020.89 1021.01 1021.13 1021.29 1021.45 1021.57 1021.61 1021.61 1021.61 1021.69 1021.69 1021.69 1021.77 1021.81 1021.85 1021.93 1022.09 1022.17 1022.25 1022.37 1022.41 1022.45 1022.53 1022.49 1022.37 1022.33 1022.21 1022.09 1022.09 1022.05 1022.01 1021.97 1021.93 1021.89 1021.89 1021.93 1021.89 1021.89 1021.97
1021.01 1021.05 1021.09 1021.13 1021.25 1021.41 1021.53 1021.57 1021.61 1021.65 1021.69 1021.81 1021.89 1021.93 1021.93 1021.97 1022.09 1022.13 1022.21 1022.33 1022.49 1022.61 1022.77 1022.85 1022.97 1023.01 1022.97 1022.81 1022.73 1022.53 1022.33 1022.33 1022.29 1022.29 1022.25 1022.25 1022.21 1022.21 1022.33 1022.33 1022.45 1022.49
1021.09 1021.09 1021.21 1021.37 1021.53 1021.65 1021.73 1021.77 1021.81 1021.81 1021.81 1021.89 1021.97 1022.09 1022.17 1022.21 1022.25 1022.41 1022.53 1022.69 1022.81 1023.01 1023.21 1023.37 1023.49 1023.57 1023.53 1023.33 1023.13 1022.89 1022.57 1022.49 1022.49 1022.45 1022.41 1022.45 1022.49 1022.57 1022.61 1022.57 1022.65 1022.73
1021.13 1021.25 1021.45 1021.65 1021.77 1021.85 1021.89 1021.89 1021.93 1021.97 1022.01 1022.09 1022.17 1022.21 1022.25 1022.29 1022.45 1022.65 1022.89 1023.09 1023.29 1023.49 1023.69 1023.85 1024.05 1024.13 1024.09 1023.89 1023.53 1023.25 1022.89 1022.69 1022.69 1022.65 1022.57 1022.69 1022.73 1022.81 1022.73 1022.73 1022.77 1022.89
1021.33 1021.45 1021.61 1021.77 1021.85 1021.93 1021.97 1022.01 1022.09 1022.13 1022.17 1022.25 1022.37 1022.49 1022.61 1022.73 1022.85 1022.97 1023.21 1023.49 1023.73 1023.93 1024.13 1024.37 1024.53 1024.65 1024.65 1024.45 1024.09 1023.73 1023.53 1022.93 1022.85 1022.81 1022.89 1022.97 1023.01 1022.97 1022.89 1022.89 1022.97 1023.09
1021.37 1021.53 1021.69 1021.85 1021.97 1022.05 1022.13 1022.17 1022.25 1022.33 1022.37 1022.41 1022.45 1022.61 1022.77 1022.93 1023.09 1023.33 1023.57 1023.85 1024.13 1024.37 1024.57 1024.77 1024.97 1025.13 1025.13 1024.97 1024.57 1024.25 1023.97 1023.61 1023.01 1023.17 1023.05 1023.21 1023.21 1023.17 1023.13 1023.17 1023.21 1023.37
1021.49 1021.61 1021.77 1021.93 1022.05 1022.17 1022.33 1022.45 1022.61 1022.69 1022.73 1022.69 1022.69 1022.77 1022.85 1023.01 1023.25 1023.53 1023.85 1024.13 1024.45 1024.69 1024.97 1025.13 1025.33 1025.45 1025.53 1025.41 1025.09 1024.77 1024.41 1024.13 1023.53 1023.29 1023.33 1023.41 1023.41 1023.37 1023.37 1023.41 1023.53 1023.69
1021.61 1021.77 1021.93 1022.09 1022.25 1022.41 1022.57 1022.65 1022.73 1022.85 1022.93 1023.01 1023.05 1023.09 1023.09 1023.13 1023.33 1023.65 1024.05 1024.41 1024.73 1024.97 1025.21 1025.49 1025.65 1025.81 1025.89 1025.93 1025.65 1025.21 1024.93 1024.41 1024.17 1023.57 1023.53 1023.65 1023.65 1023.57 1023.57 1023.61 1023.77 1024.01
1021.65 1021.81 1022.01 1022.17 1022.41 1022.61 1022.77 1022.89 1022.97 1023.05 1023.13 1023.29 1023.37 1023.45 1023.49 1023.53 1023.65 1023.97 1024.33 1024.73 1025.09 1025.33 1025.53 1025.77 1025.97 1026.05 1026.17 1026.09 1026.01 1025.85 1025.37 1024.85 1024.49 1023.85 1023.69 1023.69 1023.77 1023.73 1023.77 1023.81 1024.01 1024.09
1021.69 1021.89 1022.13 1022.37 1022.61 1022.81 1023.01 1023.17 1023.37 1023.49 1023.61 1023.73 1023.81 1023.85 1023.85 1023.93 1024.01 1024.25 1024.57 1024.97 1025.37 1025.65 1025.81 1025.93 1026.09 1026.25 1026.13 1025.93 1025.73 1025.73 1025.49 1025.09 1024.73 1023.97 1023.77 1023.73 1023.81 1023.81 1023.85 1023.93 1024.05 1024.01
1021.77 1021.97 1022.29 1022.61 1022.85 1023.13 1023.33 1023.49 1023.65 1023.77 1023.93 1024.01 1024.09 1024.13 1024.17 1024.25 1024.33 1024.45 1024.69 1025.09 1025.49 1025.81 1026.01 1026.13 1026.21 1026.37 1026.21 1025.97 1025.69 1025.37 1025.37 1025.33 1024.69 1023.93 1023.85 1023.81 1023.81 1023.73 1023.77 1023.85 1024.05 1023.97
1021.89 1022.33 1022.77 1023.13 1023.37 1023.57 1023.65 1023.65 1023.77 1023.93 1024.09 1024.25 1024.33 1024.37 1024.41 1024.53 1024.57 1024.61 1024.73 1025.09 1025.53 1025.97 1026.25 1026.37 1026.37 1026.45 1026.29 1026.09 1025.85 1025.61 1025.17 1025.05 1024.57 1024.01 1023.97 1023.85 1023.77 1023.61 1023.65 1023.77 1023.93 1023.93
1022.29 1022.73 1023.09 1023.37 1023.49 1023.57 1023.57 1023.57 1023.73 1023.93 1024.05 1024.17 1024.29 1024.41 1024.61 1024.77 1024.85 1024.93 1024.97 1025.13 1025.57 1026.05 1026.41 1026.49 1026.53 1026.53 1026.33 1026.09 1025.89 1025.53 1025.17 1024.81 1024.45 1024.01 1023.93 1023.81 1023.81 1023.65 1023.57 1023.77 1023.97 1024.13
1022.45 1022.73 1022.97 1023.13 1023.17 1023.29 1023.41 1023.61 1023.77 1023.85 1023.93 1024.05 1024.17 1024.37 1024.61 1024.89 1025.09 1025.25 1025.21 1025.25 1025.65 1026.09 1026.37 1026.57 1026.69 1026.61 1026.33 1026.21 1025.97 1025.61 1025.09 1024.69 1024.17 1024.01 1023.85 1023.77 1023.77 1023.69 1023.61 1023.93 1024.09 1024.33
1022.25 1022.57 1022.81 1023.05 1023.21 1023.37 1023.53 1023.73 1023.81 1023.93 1024.05 1024.17 1024.29 1024.49 1024.69 1024.97 1025.25 1025.37 1025.45 1025.45 1025.69 1026.09 1026.37 1026.65 1026.81 1026.73 1026.49 1026.33 1026.17 1025.93 1025.45 1024.81 1024.33 1024.17 1023.97 1023.81 1023.73 1023.61 1023.81 1024.01 1024.17 1024.25
1022.25 1022.49 1022.81 1023.05 1023.25 1023.41 1023.61 1023.69 1023.81 1023.93 1024.01 1024.09 1024.33 1024.57 1024.89 1025.17 1025.45 1025.65 1025.73 1025.81 1025.81 1026.05 1026.41 1026.69 1026.93 1026.93 1026.69 1026.53 1026.33 1026.17 1025.81 1025.17 1024.69 1024.57 1024.41 1024.29 1024.13 1023.61 1023.89 1024.05 1024.17 1024.13
1022.25 1022.49 1022.77 1023.01 1023.25 1023.53 1023.69 1023.77 1023.77 1023.85 1023.97 1024.13 1024.33 1024.61 1024.89 1025.17 1025.45 1025.73 1025.93 1026.09 1026.17 1026.25 1026.21 1026.53 1027.01 1027.01 1026.81 1026.69 1026.53 1026.33 1026.09 1025.53 1025.13 1025.09 1024.93 1024.77 1024.61 1024.05 1023.81 1024.17 1024.17 1024.01
1022.25 1022.53 1022.77 1023.01 1023.33 1023.53 1023.65 1023.73 1023.85 1023.93 1024.05 1024.17 1024.33 1024.53 1024.73 1024.93 1025.21 1025.57 1025.89 1026.09 1026.25 1026.29 1026.25 1026.25 1026.73 1026.93 1026.81 1026.73 1026.65 1026.49 1026.29 1025.89 1025.53 1025.57 1025.49 1025.33 1025.09 1024.57 1023.81 1023.65 1023.77 1023.85
1022.33 1022.61 1022.89 1023.17 1023.37 1023.53 1023.57 1023.69 1023.73 1023.81 1023.93 1024.05 1024.17 1024.33 1024.65 1025.01 1025.21 1025.41 1025.61 1025.81 1025.97 1026.09 1026.17 1026.25 1026.49 1026.85 1026.77 1026.69 1026.69 1026.57 1026.45 1026.25 1025.89 1025.93 1025.85 1025.69 1025.29 1024.81 1024.21 1023.93 1023.85 1023.77
Wind_Speed
5 5 5 5 6 5 5 5 5 7 5 5 5 5 3 1 2 3 4 7 6 5 6 5 5 5 6 5 5 6 5 5 5 4 5 6 6 6 7 8 7 7
6 6 4 4 4 5 5 5 5 5 5 5 4 3 2 2 4 5 6 6 6 6 6 6 5 5 5 4 5 5 4 5 6 5 4 7 5 5 6 6 6 6
7 6 5 5 5 7 6 5 4 5 5 5 3 2 2 4 6 5 4 5 5 5 6 6 6 6 6 6 5 5 5 6 6 5 5 6 6 6 6 5 5 5
6 4 3 5 5 6 6 5 5 4 3 3 3 2 4 5 4 5 5 6 5 6 5 6 6 6 6 7 6 6 6 6 6 6 5 5 5 5 5 4 5 5
6 4 5 5 5 5 5 6 5 4 4 4 4 6 5 4 5 5 5 5 5 6 6 7 7 7 6 6 6 5 6 5 6 6 5 5 4 5 5 6 7 6
7 7 7 6 6 6 6 6 6 6 7 6 5 4 5 5 6 6 6 6 7 6 7 7 7 7 7 7 6 5 5 5 6 6 6 6 6 6 6 6 7 7
6 7 7 7 7 6 5 6 6 6 6 5 5 5 5 6 6 7 7 7 8 8 8 8 8 8 7 6 6 6 5 6 7 7 7 7 6 7 7 6 7 7
6 6 5 6 6 6 7 7 7 5 5 5 6 6 6 7 7 5 7 8 8 9 8 9 8 8 8 6 7 6 6 5 6 7 7 7 5 7 7 7 8 10
6 6 7 7 7 6 7 6 5 6 6 6 6 6 5 6 6 7 8 8 9 9 9 9 10 9 8 7 6 6 6 5 6 6 6 6 7 8 8 8 9 8
7 7 7 7 7 6 7 6 6 6 6 6 6 5 7 6 7 8 8 9 9 10 10 9 10 9 8 8 7 7 5 6 6 5 5 6 7 8 7 7 7 7
8 8 8 7 6 6 6 6 6 5 6 7 6 6 6 5 7 8 8 9 9 10 10 10 10 10 9 9 8 7 7 5 6 5 5 7 7 7 7 6 7 7
8 8 8 7 7 6 6 6 6 6 6 6 7 7 7 7 8 7 8 9 10 10 10 10 10 9 10 9 9 8 9 5 5 5 6 7 6 6 6 7 7 7
7 7 7 7 6 6 6 6 6 6 7 7 6 7 7 7 8 8 8 9 9 9 10 10 10 9 9 9 9 9 9 9 5 6 5 4 5 6 7 7 8 8
7 7 7 6 6 6 7 6 7 6 6 6 6 6 7 7 8 8 7 8 8 8 9 8 8 8 8 8 8 8 8 9 7 5 5 6 5 5 6 7 8 8
7 6 6 7 7 7 7 6 6 6 6 6 6 6 5 7 8 9 9 9 9 8 9 9 8 8 7 7 7 8 7 8 8 4 5 4 4 5 5 6 7 7
8 6 7 7 7 7 7 6 6 6 7 7 7 6 6 6 7 8 9 9 9 9 8 7 7 6 10 12 8 6 6 6 7 4 5 3 4 4 4 5 7 6
7 8 7 8 7 7 7 8 8 7 7 8 7 6 5 6 6 8 8 9 9 8 7 7 6 8 15 14 13 12 6 6 6 3 3 3 3 3 4 4 5 4
8 8 8 8 8 8 8 8 7 7 7 7 6 6 6 5 6 6 7 7 7 7 8 7 7 11 15 15 15 16 10 6 6 2 3 3 3 3 3 3 4 4
9 9 9 8 8 8 7 7 7 8 7 7 7 6 5 6 5 4 5 6 7 8 8 8 7 12 14 15 15 15 15 9 5 3 3 3 3 2 3 3 4 4
9 9 9 8 7 7 6 7 7 7 6 5 6 6 6 5 5 4 3 5 7 7 7 7 8 11 14 16 16 17 16 12 4 2 2 2 4 4 3 5 5 6
10 9 9 8 7 7 6 7 6 5 5 4 4 5 5 6 5 4 3 5 7 7 6 7 7 12 14 16 17 18 19 13 2 3 2 2 3 3 3 6 6 6
9 8 8 8 8 7 7 7 6 6 5 5 5 5 5 5 5 3 3 4 6 6 5 5 6 11 13 15 16 17 17 8 5 4 4 3 3 3 5 5 5 3
9 9 8 8 8 8 7 6 6 5 5 4 5 5 5 5 4 4 4 4 4 5 5 3 5 8 11 12 14 16 13 7 6 6 5 7 8 4 5 4 3 2
8 9 8 8 7 8 7 5 4 4 5 4 4 4 5 5 5 5 5 4 4 3 2 3 3 5 9 10 12 14 12 7 6 6 7 7 8 9 2 5 4 11
8 8 8 8 8 7 5 5 5 5 4 4 4 4 4 4 4 4 4 4 3 3 2 3 5 4 6 7 9 10 10 7 6 7 7 7 8 8 6 2 1 4
7 8 7 8 7 6 5 4 3 3 3 4 4 4 5 4 3 3 3 3 4 3 3 3 4 3 4 6 6 7 9 7 5 6 7 7 7 8 6 5 4 5
Wind_Direction
64 64 62 62 60 50 54 66 57 61 61 75 82 83 85 143 40 45 58 48 47 34 33 31 29 28 26 21 20 27 34 39 23 9 355 7 29 15 22 11 9 6
61 79 83 90 85 77 70 54 68 81 81 75 80 93 107 96 66 36 40 52 44 44 34 34 30 25 31 22 28 26 24 46 24 10 7 25 25 11 28 12 11 3
63 63 72 81 95 95 83 73 76 75 79 98 105 89 90 72 67 63 51 51 51 44 41 35 28 22 29 25 26 25 21 40 20 5 17 29 20 8 36 4 12 343
87 112 123 100 89 96 105 108 100 96 106 95 106 123 75 61 68 65 52 52 53 44 45 39 32 22 29 29 26 25 20 31 17 7 26 28 24 13 20 7 359 352
122 115 99 98 105 102 99 94 87 95 100 95 69 55 62 71 62 61 59 53 46 51 38 42 33 24 23 29 27 25 26 22 12 19 27 24 16 11 24 6 5 2
131 120 112 118 126 129 125 123 120 101 85 75 76 66 59 60 59 54 56 58 45 38 43 39 35 27 17 29 22 24 31 18 17 21 22 27 11 22 23 13 11 2
118 124 125 116 106 98 94 84 82 87 82 78 75 73 68 62 63 63 52 48 49 44 40 33 36 26 18 23 18 22 32 25 25 20 19 31 14 23 24 14 12 7
112 99 95 95 100 103 93 94 91 87 85 75 71 67 65 64 63 60 64 58 47 46 40 37 29 29 16 17 18 11 32 25 29 21 18 28 13 26 22 16 11 27
104 110 109 102 93 86 94 94 93 96 96 92 79 72 70 74 67 60 55 56 54 47 41 34 29 22 17 11 15 7 24 29 32 24 20 27 17 28 30 20 28 25
111 110 99 95 96 90 91 90 86 75 75 81 87 86 77 68 67 63 58 53 51 48 40 34 28 23 17 8 11 357 12 27 33 18 34 28 26 37 24 27 29 28
101 96 101 99 97 92 84 84 82 84 84 80 70 67 68 77 78 74 66 58 52 45 39 34 28 23 16 7 2 353 351 34 25 17 28 31 36 28 29 23 32 33
111 109 102 100 99 96 96 91 88 81 78 79 82 83 77 67 65 64 65 62 54 48 41 35 30 24 17 5 357 353 341 359 27 25 32 36 23 28 22 23 41 28
110 105 99 96 91 87 81 79 78 80 82 80 87 94 92 84 79 76 70 66 61 51 44 35 31 26 16 4 357 352 349 334 40 20 36 42 24 28 25 29 32 32
109 105 102 95 93 92 92 92 85 77 75 75 79 80 84 90 89 84 78 71 64 59 48 39 31 27 16 4 357 353 345 338 348 44 22 38 19 31 30 33 36 33
105 107 108 101 95 89 83 83 91 99 100 93 78 66 65 76 79 74 73 69 64 57 52 41 31 21 16 360 350 349 346 339 333 357 42 33 23 30 29 36 42 33
112 109 105 104 104 102 100 98 91 82 79 76 73 70 68 65 77 81 75 68 59 52 51 46 31 23 2 8 12 358 336 330 325 336 41 30 29 32 33 43 41 30
114 108 109 106 101 98 94 90 84 79 78 77 73 70 67 75 78 81 80 74 66 55 45 41 33 7 1 7 1 7 356 331 317 332 18 40 30 29 41 39 45 16
119 113 104 96 95 95 93 88 91 92 86 81 84 82 77 72 71 83 93 87 76 63 47 36 28 11 5 5 4 357 359 336 302 347 358 50 2 18 52 49 46 3
102 100 99 96 92 92 97 105 103 100 96 96 89 86 80 73 68 63 78 95 84 66 48 34 25 9 6 8 4 358 349 341 301 15 348 32 2 348 65 48 58 17
110 109 109 113 120 125 123 110 106 105 112 109 106 94 86 81 72 67 75 87 86 76 57 36 27 3 9 8 4 359 348 343 273 3 326 31 9 351 31 57 51 38
125 128 131 133 127 119 111 108 107 111 103 101 98 95 93 92 81 64 46 74 87 85 67 46 24 8 11 8 6 0 350 333 332 349 335 26 30 341 23 70 60 58
130 125 123 120 118 116 113 107 103 101 103 103 96 91 90 85 84 76 57 57 90 94 86 58 32 15 12 9 4 1 349 331 4 339 357 335 49 341 64 76 74 80
130 130 126 122 118 116 112 114 116 111 105 104 102 101 93 88 90 79 63 52 55 94 101 85 48 18 18 8 2 0 356 337 9 359 356 353 346 345 94 88 103 70
130 126 125 122 119 111 109 106 104 106 103 99 104 113 112 119 113 103 94 75 60 48 60 110 87 33 29 10 2 357 356 348 10 4 359 356 345 326 80 135 86 63
130 125 121 117 114 117 117 118 115 110 111 110 112 113 121 125 122 123 128 123 114 111 29 76 111 70 38 20 5 355 358 348 13 9 3 352 339 324 327 43 134 95
119 118 118 120 121 119 117 112 122 126 135 141 140 129 122 118 109 102 114 139 156 147 99 61 99 99 54 47 12 356 359 351 13 13 4 345 334 328 335 348 7 359